Miscellaneous Local Product
Issued by NWS Hastings, NE

Home | Current Version | Previous Version | Text Only | Print | Product List | Glossary On
Versions: 1 2 3 4 5 6 7 8 9 10 11 12 13 14 15 16 17 18 19 20 21 22 23 24 25 26 27 28 29 30 31 32 33 34 35 36 37 38 39 40 41 42 43 44 45 46 47 48 49 50
000
AXUS43 KGID 271902
MISGRI

GID CWA HOURLY WEATHER ROUNDUP
NATIONAL WEATHER SERVICE HASTINGS NE
200 PM CDT SAT MAY 27 2017

NOTE: "FAIR" INDICATES FEW OR NO CLOUDS BELOW 12,000 FEET WITH NO
SIGNIFICANT WEATHER AND/OR OBSTRUCTIONS TO VISIBILITY.

...SOUTH CENTRAL NEBRASKA...

CITY           SKY/WX    TMP DP  RH WIND       PRES   REMARKS
GRAND ISLAND   SUNNY     73  49  42 NE7G17    29.92F
HASTINGS       SUNNY     72  53  51 NE13      29.92F
KEARNEY        MOSUNNY   72  52  49 NW12      29.93F
ORD            CLOUDY    68  47  46 NW5       29.95S
YORK           SUNNY     73  50  43 NE12G20   29.89F
AURORA         SUNNY     73  46  39 NE10      29.90F
LEXINGTON      CLOUDY    67  54  62 N12       29.97R
HOLDREGE       MOSUNNY   69  51  52 N12G18    29.94S
HEBRON         MOSUNNY   71  59  65 N10       29.87F

...NEBRASKA PANHANDLE...

CITY           SKY/WX    TMP DP  RH WIND       PRES   REMARKS
CHADRON        CLOUDY    62  42  47 N10       30.05S
ALLIANCE       CLOUDY    60  43  53 N14G30    30.06S
SCOTTSBLUFF    MOSUNNY   63  43  48 N8        30.08S
SIDNEY         PTSUNNY   59  45  59 NW15      30.08S

...WESTERN AND NORTH CENTRAL NEBRASKA...

CITY           SKY/WX    TMP DP  RH WIND       PRES   REMARKS
VALENTINE      CLOUDY    62  49  62 NW7       30.02F
AINSWORTH      CLOUDY    55  52  89 CALM      30.03S
ONEILL         PTSUNNY   64  50  61 NW15      30.00R
BROKEN BOW     CLOUDY    65  52  62 N12       29.98F
IMPERIAL       CLOUDY    63  49  60 MISG      30.03S
NORTH PLATTE   CLOUDY    61  55  81 N7        30.02R
MCCOOK         CLOUDY    68  55  63 N16       29.98R

...EASTERN NEBRASKA...

CITY           SKY/WX    TMP DP  RH WIND       PRES   REMARKS
NORFOLK        PTSUNNY   71  47  42 NE10      29.91S
SO SIOUX CITY  MOSUNNY   73  52  47 N12       29.90F
TEKAMAH        SUNNY     75  48  38 NE14G21   29.87F
ALBION         CLOUDY    71  49  46 N6        29.93F
OMAHA EPPLEY   PTSUNNY   71  58  63 NE10      29.87F
OFFUTT AFB     MOSUNNY   69  60  72 NE10      29.85F
MILLARD        PTSUNNY   70  60  69 NE7       29.87S
LINCOLN        MOSUNNY   70  59  68 NE9       29.88F
NEBRASKA CITY  CLOUDY    68  60  77 NE14G20   29.84F
BEATRICE       PTSUNNY   69  60  74 N14       29.85F
FALLS CITY     CLOUDY    68  62  81 N9        29.80F

...NORTHERN KANSAS...

CITY           SKY/WX    TMP DP  RH WIND       PRES   REMARKS
GOODLAND       CLOUDY    63  53  70 N17G26    30.01F
HILL CITY      MOSUNNY   73  60  63 NW16      29.92F
NORTON         CLOUDY    68  54  60 N7        29.93S
PHILLIPSBURG   CLOUDY    70  57  64 N8        29.91F
SMITH CENTER   PTSUNNY   70  57  64 N7        29.91S
HAYS           CLOUDY    74  60  61 NW13      29.90S
RUSSELL        PTSUNNY   72  60  66 NW9       29.88S
CONCORDIA      PTSUNNY   71  62  73 N7        29.86F
SALINA         CLOUDY    70  62  76 NW12      29.83F
TOPEKA         PTSUNNY   73  62  68 VRB3      29.79S



USA.gov is the U.S. government's official web portal to all federal, state and local government web resources and services.